"Pseudo-MPEC" for P20IfW2

Created 2018 Jul 17 10:18:18 UT using Find_Orb

Click here for an explanation of pseudo-MPECs

 
 Astrometry: 
     P20IfW2  C2018 07 08wcAstrometryjD6KQBOX)F6S^wK%:l?!]xiA(]kN[/rYyCdAsv%sF52
     P20IfW2  C2018 07 08f21m0\L$NkYfCHaL,redacted;STgbaId]v:p([MlyKFD*fBSNn_F52
     P20IfW2  C2018 07 08[w\Z8+xu\8kRN3l@+Ek,DPrf)4B[6HXrsee(qWZF9rlE6@3\:\,$F52
     P20IfW2  C2018 07 08\Ql?Qa3pcEBEy%=mw/8gOKJCD,)f?SX^+8Er..=PSZ)2Qv/NEOCPF52

Station data:
(F52) Pan-STARRS 2, Haleakala  (N20.707384 W156.255910)  US/Hawaii.

Orbital elements:  P20IfW2
   Perihelion 2018 Jun 3.894881 +/- 23.2 TT = 21:28:37 (JD 2458273.394881)
Epoch 2018 Jul  8.0 TT = JDT 2458307.5   Earth MOID: 0.0299   AutoNEOCP
M  25.02026 +/- 39                  (J2000 ecliptic)
n   0.73362206 +/- 0.591            Peri.  128.77736 +/- 80
a   1.21755276 +/- 0.654            Node   119.60897 +/- 70
e   0.1680927 +/- 0.23              Incl.    3.93672 +/- 32
P   1.34/490.71d           H 25.2   G  0.15   U 12.4  SR
q 1.01289098 +/- 0.353    Q 1.42221454 +/- 23.4
From 4 observations 2018 July 8 (45.7 min); mean residual 0".09
Residuals in arcseconds: 
180708 F52  .05-  .02+    180708 F52  .21+  .01-    
180708 F52  .03-  .02-    180708 F52  .13-  .01+    

Ephemerides (geocentric):
Date (UTC) HH   RA              Dec         delta   r     elong  mag " sig PA
---- -- -- --  -------------   -----------  ------ ------ -----  --- ---- ---
2018 07 17 10  16 47 33.877   -12 49 48.49  .05345 1.0559 136.7 20.6  24d  11
2018 07 17 11  16 47 55.961   -12 54 16.99  .05350 1.0560 136.8 20.6  24d  11
2018 07 17 12  16 48 18.026   -12 58 44.92  .05355 1.0561 136.9 20.6  24d  11
2018 07 17 13  16 48 40.074   -13 03 12.29  .05360 1.0561 136.9 20.6  24d  11
2018 07 17 14  16 49 02.104   -13 07 39.08  .05365 1.0562 137.0 20.6  24d  11
2018 07 17 15  16 49 24.115   -13 12 05.30  .05370 1.0563 137.1 20.6  24d  11
2018 07 17 16  16 49 46.109   -13 16 30.94  .05375 1.0564 137.1 20.6  24d  11
2018 07 17 17  16 50 08.085   -13 20 56.01  .05380 1.0565 137.2 20.6  24d  11
2018 07 17 18  16 50 30.043   -13 25 20.50  .05385 1.0565 137.3 20.6  24d  11
2018 07 17 19  16 50 51.982   -13 29 44.41  .05390 1.0566 137.3 20.6  24d  11
2018 07 17 20  16 51 13.903   -13 34 07.75  .05395 1.0567 137.4 20.6  25d  11
2018 07 17 21  16 51 35.806   -13 38 30.50  .05401 1.0568 137.5 20.6  25d  11
2018 07 17 22  16 51 57.690   -13 42 52.67  .05406 1.0568 137.5 20.6  25d  11
2018 07 17 23  16 52 19.556   -13 47 14.26  .05411 1.0569 137.6 20.6  25d  11
2018 07 18 00  16 52 41.403   -13 51 35.26  .05416 1.0570 137.7 20.6  25d  12
2018 07 18 01  16 53 03.231   -13 55 55.67  .05422 1.0571 137.7 20.6  25d  12
2018 07 18 02  16 53 25.041   -14 00 15.50  .05427 1.0572 137.8 20.6  25d  12
2018 07 18 03  16 53 46.831   -14 04 34.74  .05432 1.0572 137.9 20.6  25d  12
2018 07 18 04  16 54 08.603   -14 08 53.39  .05438 1.0573 137.9 20.6  25d  12
2018 07 18 05  16 54 30.355   -14 13 11.45  .05443 1.0574 138.0 20.6  25d  12
2018 07 18 06  16 54 52.089   -14 17 28.91  .05448 1.0575 138.1 20.6  25d  12
2018 07 18 07  16 55 13.803   -14 21 45.79  .05454 1.0575 138.1 20.6  25d  12
2018 07 18 08  16 55 35.498   -14 26 02.07  .05459 1.0576 138.2 20.6  25d  12
2018 07 18 09  16 55 57.174   -14 30 17.75  .05465 1.0577 138.3 20.6  25d  12
2018 07 18 10  16 56 18.830   -14 34 32.84  .05470 1.0578 138.3 20.6  25d  12
2018 07 18 11  16 56 40.467   -14 38 47.34  .05476 1.0579 138.4 20.6  25d  12
2018 07 18 12  16 57 02.084   -14 43 01.23  .05481 1.0579 138.4 20.6  25d  12
2018 07 18 13  16 57 23.682   -14 47 14.53  .05487 1.0580 138.5 20.6  25d  12
2018 07 18 14  16 57 45.260   -14 51 27.22  .05492 1.0581 138.6 20.6  25d  12
2018 07 18 15  16 58 06.818   -14 55 39.32  .05498 1.0582 138.6 20.6  25d  12
2018 07 18 16  16 58 28.357   -14 59 50.81  .05503 1.0582 138.7 20.6  25d  12
2018 07 18 17  16 58 49.875   -15 04 01.70  .05509 1.0583 138.8 20.6  25d  12
2018 07 18 18  16 59 11.374   -15 08 11.99  .05515 1.0584 138.8 20.6  25d  12
2018 07 18 19  16 59 32.852   -15 12 21.68  .05520 1.0585 138.9 20.6  25d  12
2018 07 18 20  16 59 54.311   -15 16 30.76  .05526 1.0586 138.9 20.6  25d  12
2018 07 18 21  17 00 15.749   -15 20 39.23  .05532 1.0586 139.0 20.6  25d  12
2018 07 18 22  17 00 37.167   -15 24 47.10  .05538 1.0587 139.1 20.6  25d  12
2018 07 18 23  17 00 58.565   -15 28 54.36  .05543 1.0588 139.1 20.6  25d  12
2018 07 19 00  17 01 19.942   -15 33 01.01  .05549 1.0589 139.2 20.6  25d  12
2018 07 19 01  17 01 41.299   -15 37 07.06  .05555 1.0590 139.3 20.6  25d  13
2018 07 19 02  17 02 02.635   -15 41 12.49  .05561 1.0590 139.3 20.6  25d  13
2018 07 19 03  17 02 23.951   -15 45 17.32  .05567 1.0591 139.4 20.6  25d  13
2018 07 19 04  17 02 45.246   -15 49 21.54  .05573 1.0592 139.4 20.6  25d  13
2018 07 19 05  17 03 06.521   -15 53 25.14  .05578 1.0593 139.5 20.6  26d  13
2018 07 19 06  17 03 27.774   -15 57 28.14  .05584 1.0594 139.6 20.6  26d  13
2018 07 19 07  17 03 49.007   -16 01 30.52  .05590 1.0594 139.6 20.6  26d  13
2018 07 19 08  17 04 10.219   -16 05 32.29  .05596 1.0595 139.7 20.6  26d  13
2018 07 19 09  17 04 31.410   -16 09 33.45  .05602 1.0596 139.7 20.6  26d  13